Location: �chenoz-la-M�line
(47.6009°N, 6.1354°E)
Time: 10:57:57
(UTC+00:00)

Cosmos 1814 Rocket - Visible Passes

Search period start: 09 May 2021 00:00
Search period end: 19 May 2021 00:00
Orbit: 744 x 787 km, 74.1° (Epoch: 08 May)

Date Brightness Start Highest point End Pass type
(mag) Time Alt. Az. Time Alt. Az. Time Alt. Az.
09 May 6.8 20:39:39 10° WNW 20:41:11 11° W 20:42:44 10° WSW visible
10 May 6.4 20:00:15 10° NW 20:03:53 19° W 20:07:30 10° SW visible
13 May 6.8 19:50:28 10° WNW 19:52:29 12° W 19:54:30 10° WSW visible
